owner,sensor,date,latitude,longitude,vertical_datum,direction_of_sea_water_velocity,sea_water_speed,upward_sea_water_velocity,qcFlag 
TABS,ioos:station:wmo:42048:1,2012-12-01T00:00:00Z,27.9396,-96.8429,2.0,235.7330593,21.22390398,-99999.0,'11111222,11111222,99999999' 
TABS,ioos:station:wmo:42048:1,2012-12-01T00:30:00Z,27.9396,-96.8429,2.0,237.093097,21.49941627,-99999.0,'11111222,11111222,99999999' 
TABS,ioos:station:wmo:42048:1,2012-12-01T01:00:00Z,27.9396,-96.8429,2.0,227.9267883,19.3858763,-99999.0,'11111222,11111222,99999999' 
TABS,ioos:station:wmo:42048:1,2012-12-01T01:30:00Z,27.9396,-96.8429,2.0,231.350078,17.51644941,-99999.0,'11111222,11111222,99999999' 
TABS,ioos:station:wmo:42048:1,2012-12-01T02:00:00Z,27.9396,-96.8429,2.0,244.2507502,19.15162917,-99999.0,'11111222,11111222,99999999' 
TABS,ioos:station:wmo:42048:1,2012-12-01T02:30:00Z,27.9396,-96.8429,2.0,230.6669567,19.54805617,-99999.0,'11111222,11111222,99999999' 
TABS,ioos:station:wmo:42048:1,2012-12-01T03:00:00Z,27.9396,-96.8429,2.0,240.549645,17.59331975,-99999.0,'11111222,11111222,99999999' 
TABS,ioos:station:wmo:42048:1,2012-12-01T03:30:00Z,27.9396,-96.8429,2.0,226.8992456,14.07916191,-99999.0,'11111222,11111222,99999999' 
TABS,ioos:station:wmo:42048:1,2012-12-01T04:00:00Z,27.9396,-96.8429,2.0,233.8233291,14.70507735,-99999.0,'11111222,11111222,99999999' 
TABS,ioos:station:wmo:42048:1,2012-12-01T04:30:00Z,27.9396,-96.8429,2.0,235.2549215,14.61605282,-99999.0,'11111222,11111222,99999999' 
TABS,ioos:station:wmo:42048:1,2012-12-01T05:00:00Z,27.9396,-96.8429,2.0,232.1088082,15.82651257,-99999.0,'11111222,11111222,99999999' 
TABS,ioos:station:wmo:42048:1,2012-12-01T05:30:00Z,27.9396,-96.8429,2.0,215.4862648,14.33217709,-99999.0,'11111222,11111222,99999999' 
TABS,ioos:station:wmo:42048:1,2012-12-01T06:00:00Z,27.9396,-96.8429,2.0,229.9999357,13.22372489,-99999.0,'11111222,11111222,99999999' 
TABS,ioos:station:wmo:42048:1,2012-12-01T06:30:00Z,27.9396,-96.8429,2.0,226.3054373,12.10173954,-99999.0,'11111222,11111222,99999999' 
TABS,ioos:station:wmo:42048:1,2012-12-01T07:00:00Z,27.9396,-96.8429,2.0,246.0897548,12.16385219,-99999.0,'11111222,11111222,99999999' 
TABS,ioos:station:wmo:42048:1,2012-12-01T07:30:00Z,27.9396,-96.8429,2.0,245.9587499,9.646812945,-99999.0,'11133222,11111222,99999999' 
TABS,ioos:station:wmo:42048:1,2012-12-01T08:00:00Z,27.9396,-96.8429,2.0,239.9582854,11.50561602,-99999.0,'11111222,11111222,99999999' 
TABS,ioos:station:wmo:42048:1,2012-12-01T08:30:00Z,27.9396,-96.8429,2.0,247.4326228,11.67385112,-99999.0,'11111222,11111222,99999999' 
TABS,ioos:station:wmo:42048:1,2012-12-01T09:00:00Z,27.9396,-96.8429,2.0,226.5918031,11.45248008,-99999.0,'11111222,11111222,99999999' 
TABS,ioos:station:wmo:42048:1,2012-12-01T09:30:00Z,27.9396,-96.8429,2.0,228.3199847,9.278674474,-99999.0,'11133222,11111222,99999999' 
TABS,ioos:station:wmo:42048:1,2012-12-01T10:00:00Z,27.9396,-96.8429,2.0,220.1006033,9.687399032,-99999.0,'11133222,11111222,99999999' 
TABS,ioos:station:wmo:42048:1,2012-12-01T10:30:00Z,27.9396,-96.8429,2.0,230.5327984,9.313565375,-99999.0,'11133222,11111222,99999999' 
TABS,ioos:station:wmo:42048:1,2012-12-01T11:00:00Z,27.9396,-96.8429,2.0,214.276653,8.664871609,-99999.0,'11133222,11111222,99999999' 
TABS,ioos:station:wmo:42048:1,2012-12-01T11:30:00Z,27.9396,-96.8429,2.0,214.5119555,7.924708197,-99999.0,'11133222,11111222,99999999' 
TABS,ioos:station:wmo:42048:1,2012-12-01T12:00:00Z,27.9396,-96.8429,2.0,204.3971904,8.158541536,-99999.0,'11133222,11111222,99999999' 
TABS,ioos:station:wmo:42048:1,2012-12-01T12:30:00Z,27.9396,-96.8429,2.0,202.1715569,7.18098879,-99999.0,'11133222,11111222,99999999' 
TABS,ioos:station:wmo:42048:1,2012-12-01T13:00:00Z,27.9396,-96.8429,2.0,212.0341857,8.351724373,-99999.0,'11133222,11111222,99999999' 
TABS,ioos:station:wmo:42048:1,2012-12-01T13:30:00Z,27.9396,-96.8429,2.0,213.8544797,7.718685121,-99999.0,'11133222,11111222,99999999' 
TABS,ioos:station:wmo:42048:1,2012-12-01T14:00:00Z,27.9396,-96.8429,2.0,219.0707482,6.092495384,-99999.0,'11133222,11111222,99999999' 
TABS,ioos:station:wmo:42048:1,2012-12-01T14:30:00Z,27.9396,-96.8429,2.0,221.6924484,7.231604248,-99999.0,'11133222,11111222,99999999' 
TABS,ioos:station:wmo:42048:1,2012-12-01T15:00:00Z,27.9396,-96.8429,2.0,217.3838564,7.576305168,-99999.0,'11133222,11111222,99999999' 
TABS,ioos:station:wmo:42048:1,2012-12-01T15:30:00Z,27.9396,-96.8429,2.0,224.5036305,6.533911539,-99999.0,'11133222,11111222,99999999' 
TABS,ioos:station:wmo:42048:1,2012-12-01T16:00:00Z,27.9396,-96.8429,2.0,219.0300584,7.002977938,-99999.0,'11133222,11111222,99999999' 
TABS,ioos:station:wmo:42048:1,2012-12-01T16:30:00Z,27.9396,-96.8429,2.0,210.2142272,5.901770921,-99999.0,'11133222,11111222,99999999' 
TABS,ioos:station:wmo:42048:1,2012-12-01T17:00:00Z,27.9396,-96.8429,2.0,249.9981199,5.320939767,-99999.0,'11133222,11111222,99999999' 
TABS,ioos:station:wmo:42048:1,2012-12-01T17:30:00Z,27.9396,-96.8429,2.0,217.2976457,7.228201713,-99999.0,'11133222,11111222,99999999' 
TABS,ioos:station:wmo:42048:1,2012-12-01T18:00:00Z,27.9396,-96.8429,2.0,242.6166675,6.892263779,-99999.0,'11133222,11111222,99999999' 
TABS,ioos:station:wmo:42048:1,2012-12-01T18:30:00Z,27.9396,-96.8429,2.0,236.4407014,6.06011551,-99999.0,'11133222,11111222,99999999' 
TABS,ioos:station:wmo:42048:1,2012-12-01T19:00:00Z,27.9396,-96.8429,2.0,233.7695461,5.194323825,-99999.0,'11133222,11111222,99999999' 
TABS,ioos:station:wmo:42048:1,2012-12-01T19:30:00Z,27.9396,-96.8429,2.0,255.6044341,3.097240707,-99999.0,'11133222,11111222,99999999' 
TABS,ioos:station:wmo:42048:1,2012-12-01T20:00:00Z,27.9396,-96.8429,2.0,245.0926029,8.191910644,-99999.0,'11133222,11111222,99999999' 
TABS,ioos:station:wmo:42048:1,2012-12-01T20:30:00Z,27.9396,-96.8429,2.0,240.5436662,7.625752422,-99999.0,'11133222,11111222,99999999' 
TABS,ioos:station:wmo:42048:1,2012-12-01T21:00:00Z,27.9396,-96.8429,2.0,240.0775192,8.018883962,-99999.0,'11133222,11111222,99999999' 
TABS,ioos:station:wmo:42048:1,2012-12-01T21:30:00Z,27.9396,-96.8429,2.0,256.801986,9.942600264,-99999.0,'11133222,11111222,99999999' 
TABS,ioos:station:wmo:42048:1,2012-12-01T22:00:00Z,27.9396,-96.8429,2.0,260.0556616,10.36572236,-99999.0,'11111222,11111222,99999999' 
TABS,ioos:station:wmo:42048:1,2012-12-01T22:30:00Z,27.9396,-96.8429,2.0,256.9452283,9.341418522,-99999.0,'11133222,11111222,99999999' 
TABS,ioos:station:wmo:42048:1,2012-12-01T23:00:00Z,27.9396,-96.8429,2.0,251.5332268,11.52334153,-99999.0,'11111222,11111222,99999999' 
TABS,ioos:station:wmo:42048:1,2012-12-01T23:30:00Z,27.9396,-96.8429,2.0,243.9242845,11.5116984,-99999.0,'11111222,11111222,99999999' 
TABS,ioos:station:wmo:42048:1,2012-12-02T00:00:00Z,27.9396,-96.8429,2.0,244.5592974,10.70835655,-99999.0,'11111222,11111222,99999999' 
TABS,ioos:station:wmo:42048:1,2012-12-02T00:30:00Z,27.9396,-96.8429,2.0,245.9653471,8.10246876,-99999.0,'11133222,11111222,99999999' 
TABS,ioos:station:wmo:42048:1,2012-12-02T01:00:00Z,27.9396,-96.8429,2.0,262.5830191,9.993607957,-99999.0,'11133222,11111222,99999999' 
TABS,ioos:station:wmo:42048:1,2012-12-02T01:30:00Z,27.9396,-96.8429,2.0,270.2871835,9.990125124,-99999.0,'11133222,11111222,99999999' 
TABS,ioos:station:wmo:42048:1,2012-12-02T02:00:00Z,27.9396,-96.8429,2.0,256.7956453,7.179811975,-99999.0,'11133222,11111222,99999999' 
TABS,ioos:station:wmo:42048:1,2012-12-02T02:30:00Z,27.9396,-96.8429,2.0,255.7131707,9.442001906,-99999.0,'11133222,11111222,99999999' 
TABS,ioos:station:wmo:42048:1,2012-12-02T03:00:00Z,27.9396,-96.8429,2.0,255.2717417,7.434258537,-99999.0,'11133222,11111222,99999999' 
TABS,ioos:station:wmo:42048:1,2012-12-02T03:30:00Z,27.9396,-96.8429,2.0,281.2699115,8.340821302,-99999.0,'11133222,11111222,99999999' 
TABS,ioos:station:wmo:42048:1,2012-12-02T04:00:00Z,27.9396,-96.8429,2.0,281.0473539,6.836680481,-99999.0,'11133222,11111222,99999999' 
TABS,ioos:station:wmo:42048:1,2012-12-02T04:30:00Z,27.9396,-96.8429,2.0,296.2886216,5.554457669,-99999.0,'11133222,11111222,99999999' 
TABS,ioos:station:wmo:42048:1,2012-12-02T05:00:00Z,27.9396,-96.8429,2.0,254.103212,6.425729531,-99999.0,'11133222,11111222,99999999' 
TABS,ioos:station:wmo:42048:1,2012-12-02T05:30:00Z,27.9396,-96.8429,2.0,258.1781184,5.271811833,-99999.0,'11133222,11111222,99999999' 
TABS,ioos:station:wmo:42048:1,2012-12-02T06:00:00Z,27.9396,-96.8429,2.0,235.6425302,4.288123133,-99999.0,'11133222,11111222,99999999' 
TABS,ioos:station:wmo:42048:1,2012-12-02T06:30:00Z,27.9396,-96.8429,2.0,191.7078269,3.104593371,-99999.0,'11133222,11111222,99999999' 
TABS,ioos:station:wmo:42048:1,2012-12-02T07:00:00Z,27.9396,-96.8429,2.0,193.0566828,4.824738335,-99999.0,'11133222,11111222,99999999' 
TABS,ioos:station:wmo:42048:1,2012-12-02T07:30:00Z,27.9396,-96.8429,2.0,223.6193335,2.348275963,-99999.0,'11133222,11111222,99999999' 
TABS,ioos:station:wmo:42048:1,2012-12-02T08:00:00Z,27.9396,-96.8429,2.0,202.0676375,3.193994364,-99999.0,'11133222,11111222,99999999' 
TABS,ioos:station:wmo:42048:1,2012-12-02T08:30:00Z,27.9396,-96.8429,2.0,172.6623702,3.680135867,-99999.0,'11133222,11111222,99999999' 
TABS,ioos:station:wmo:42048:1,2012-12-02T09:00:00Z,27.9396,-96.8429,2.0,182.6805709,2.993275798,-99999.0,'11133222,11111222,99999999' 
TABS,ioos:station:wmo:42048:1,2012-12-02T09:30:00Z,27.9396,-96.8429,2.0,167.8233784,4.409194938,-99999.0,'11133222,11111222,99999999' 
TABS,ioos:station:wmo:42048:1,2012-12-02T10:00:00Z,27.9396,-96.8429,2.0,158.4220227,3.806783419,-99999.0,'11133222,11111222,99999999' 
TABS,ioos:station:wmo:42048:1,2012-12-02T10:30:00Z,27.9396,-96.8429,2.0,158.25501,5.641427124,-99999.0,'11133222,11111222,99999999' 
TABS,ioos:station:wmo:42048:1,2012-12-02T11:00:00Z,27.9396,-96.8429,2.0,145.2133673,7.536982155,-99999.0,'11133222,11111222,99999999' 
TABS,ioos:station:wmo:42048:1,2012-12-02T11:30:00Z,27.9396,-96.8429,2.0,176.6920274,7.452415716,-99999.0,'11133222,11111222,99999999' 
TABS,ioos:station:wmo:42048:1,2012-12-02T12:00:00Z,27.9396,-96.8429,2.0,168.6898835,8.974274344,-99999.0,'11133222,11111222,99999999' 
TABS,ioos:station:wmo:42048:1,2012-12-02T12:30:00Z,27.9396,-96.8429,2.0,166.3593701,8.777573697,-99999.0,'11133222,11111222,99999999' 
TABS,ioos:station:wmo:42048:1,2012-12-02T13:00:00Z,27.9396,-96.8429,2.0,176.3538143,9.74973333,-99999.0,'11133222,11111222,99999999' 
TABS,ioos:station:wmo:42048:1,2012-12-02T13:30:00Z,27.9396,-96.8429,2.0,166.2513566,10.14054239,-99999.0,'11111222,11111222,99999999' 
TABS,ioos:station:wmo:42048:1,2012-12-02T14:00:00Z,27.9396,-96.8429,2.0,176.0444663,9.713135436,-99999.0,'11133222,11111222,99999999' 
TABS,ioos:station:wmo:42048:1,2012-12-02T14:30:00Z,27.9396,-96.8429,2.0,178.6267879,7.512156814,-99999.0,'11133222,11111222,99999999' 
TABS,ioos:station:wmo:42048:1,2012-12-02T15:00:00Z,27.9396,-96.8429,2.0,192.4060175,9.634988324,-99999.0,'11133222,11111222,99999999' 
TABS,ioos:station:wmo:42048:1,2012-12-02T15:30:00Z,27.9396,-96.8429,2.0,196.7222164,7.089830746,-99999.0,'11133222,11111222,99999999' 
TABS,ioos:station:wmo:42048:1,2012-12-02T16:00:00Z,27.9396,-96.8429,2.0,200.7590728,8.576829251,-99999.0,'11133222,11111222,99999999' 
TABS,ioos:station:wmo:42048:1,2012-12-02T16:30:00Z,27.9396,-96.8429,2.0,201.3561633,9.803152554,-99999.0,'11133222,11111222,99999999' 
TABS,ioos:station:wmo:42048:1,2012-12-02T17:00:00Z,27.9396,-96.8429,2.0,205.3737725,10.75781112,-99999.0,'11111222,11111222,99999999' 
TABS,ioos:station:wmo:42048:1,2012-12-02T17:30:00Z,27.9396,-96.8429,2.0,212.9774357,10.93121219,-99999.0,'11111222,11111222,99999999' 
TABS,ioos:station:wmo:42048:1,2012-12-02T18:00:00Z,27.9396,-96.8429,2.0,209.7622108,12.10703102,-99999.0,'11111222,11111222,99999999' 
TABS,ioos:station:wmo:42048:1,2012-12-02T18:30:00Z,27.9396,-96.8429,2.0,213.3270705,12.26744065,-99999.0,'11111222,11111222,99999999' 
TABS,ioos:station:wmo:42048:1,2012-12-02T19:00:00Z,27.9396,-96.8429,2.0,207.0093715,13.25581005,-99999.0,'11111222,11111222,99999999' 
TABS,ioos:station:wmo:42048:1,2012-12-02T19:30:00Z,27.9396,-96.8429,2.0,214.4889592,15.31121484,-99999.0,'11111222,11111222,99999999' 
TABS,ioos:station:wmo:42048:1,2012-12-02T20:00:00Z,27.9396,-96.8429,2.0,212.9700809,13.46918335,-99999.0,'11111222,11111222,99999999' 
TABS,ioos:station:wmo:42048:1,2012-12-02T20:30:00Z,27.9396,-96.8429,2.0,214.0984422,15.55418915,-99999.0,'11111222,11111222,99999999' 
TABS,ioos:station:wmo:42048:1,2012-12-02T21:00:00Z,27.9396,-96.8429,2.0,220.8527368,15.05837309,-99999.0,'11111222,11111222,99999999' 
TABS,ioos:station:wmo:42048:1,2012-12-02T21:30:00Z,27.9396,-96.8429,2.0,216.2369519,14.85290544,-99999.0,'11111222,11111222,99999999' 
TABS,ioos:station:wmo:42048:1,2012-12-02T22:00:00Z,27.9396,-96.8429,2.0,217.4559394,13.68071636,-99999.0,'11111222,11111222,99999999' 
TABS,ioos:station:wmo:42048:1,2012-12-02T22:30:00Z,27.9396,-96.8429,2.0,219.651312,15.24796708,-99999.0,'11111222,11111222,99999999' 
TABS,ioos:station:wmo:42048:1,2012-12-02T23:00:00Z,27.9396,-96.8429,2.0,212.3503199,15.30558722,-99999.0,'11111222,11111222,99999999' 
TABS,ioos:station:wmo:42048:1,2012-12-02T23:30:00Z,27.9396,-96.8429,2.0,218.3953963,15.92364594,-99999.0,'11111222,11111222,99999999' 
TABS,ioos:station:wmo:42048:1,2012-12-03T00:00:00Z,27.9396,-96.8429,2.0,218.0715761,16.58965039,-99999.0,'11111222,11111222,99999999' 
TABS,ioos:station:wmo:42048:1,2012-12-03T00:30:00Z,27.9396,-96.8429,2.0,219.1306562,13.48449851,-99999.0,'11111222,11111222,99999999' 
TABS,ioos:station:wmo:42048:1,2012-12-03T01:00:00Z,27.9396,-96.8429,2.0,216.7581643,13.36802528,-99999.0,'11111222,11111222,99999999' 
TABS,ioos:station:wmo:42048:1,2012-12-03T01:30:00Z,27.9396,-96.8429,2.0,213.0161752,12.97533429,-99999.0,'11111222,11111222,99999999' 
TABS,ioos:station:wmo:42048:1,2012-12-03T02:00:00Z,27.9396,-96.8429,2.0,217.6162098,14.58123794,-99999.0,'11111222,11111222,99999999' 
TABS,ioos:station:wmo:42048:1,2012-12-03T02:30:00Z,27.9396,-96.8429,2.0,214.2049539,14.49767568,-99999.0,'11111222,11111222,99999999' 
TABS,ioos:station:wmo:42048:1,2012-12-03T03:00:00Z,27.9396,-96.8429,2.0,210.1616964,13.97164271,-99999.0,'11111222,11111222,99999999' 
TABS,ioos:station:wmo:42048:1,2012-12-03T03:30:00Z,27.9396,-96.8429,2.0,211.7657263,14.20833558,-99999.0,'11111222,11111222,99999999' 
TABS,ioos:station:wmo:42048:1,2012-12-03T04:00:00Z,27.9396,-96.8429,2.0,205.6342675,15.97210381,-99999.0,'11111222,11111222,99999999' 
TABS,ioos:station:wmo:42048:1,2012-12-03T04:30:00Z,27.9396,-96.8429,2.0,210.9634737,14.51907022,-99999.0,'11111222,11111222,99999999' 
TABS,ioos:station:wmo:42048:1,2012-12-03T05:00:00Z,27.9396,-96.8429,2.0,201.4255197,13.87916784,-99999.0,'11111222,11111222,99999999' 
TABS,ioos:station:wmo:42048:1,2012-12-03T05:30:00Z,27.9396,-96.8429,2.0,211.9084063,15.70283095,-99999.0,'11111222,11111222,99999999' 
TABS,ioos:station:wmo:42048:1,2012-12-03T06:00:00Z,27.9396,-96.8429,2.0,207.4084712,16.09696245,-99999.0,'11111222,11111222,99999999' 
TABS,ioos:station:wmo:42048:1,2012-12-03T06:30:00Z,27.9396,-96.8429,2.0,206.2192318,15.57226059,-99999.0,'11111222,11111222,99999999' 
TABS,ioos:station:wmo:42048:1,2012-12-03T07:00:00Z,27.9396,-96.8429,2.0,198.3386825,15.09673475,-99999.0,'11111222,11111222,99999999' 
TABS,ioos:station:wmo:42048:1,2012-12-03T07:30:00Z,27.9396,-96.8429,2.0,201.1409466,15.4713057,-99999.0,'11111222,11111222,99999999' 
TABS,ioos:station:wmo:42048:1,2012-12-03T08:00:00Z,27.9396,-96.8429,2.0,201.8333185,13.22893798,-99999.0,'11111222,11111222,99999999' 
TABS,ioos:station:wmo:42048:1,2012-12-03T08:30:00Z,27.9396,-96.8429,2.0,195.8933391,15.19071098,-99999.0,'11111222,11111222,99999999' 
TABS,ioos:station:wmo:42048:1,2012-12-03T09:00:00Z,27.9396,-96.8429,2.0,180.9526438,14.4319957,-99999.0,'11111222,11111222,99999999' 
TABS,ioos:station:wmo:42048:1,2012-12-03T09:30:00Z,27.9396,-96.8429,2.0,181.9150131,12.56702033,-99999.0,'11111222,11111222,99999999' 
TABS,ioos:station:wmo:42048:1,2012-12-03T10:00:00Z,27.9396,-96.8429,2.0,174.1723776,10.73547856,-99999.0,'11111222,11111222,99999999' 
TABS,ioos:station:wmo:42048:1,2012-12-03T10:30:00Z,27.9396,-96.8429,2.0,168.7507715,11.07272324,-99999.0,'11111222,11111222,99999999' 
TABS,ioos:station:wmo:42048:1,2012-12-03T11:00:00Z,27.9396,-96.8429,2.0,184.241572,11.76221918,-99999.0,'11111222,11111222,99999999' 
TABS,ioos:station:wmo:42048:1,2012-12-03T11:30:00Z,27.9396,-96.8429,2.0,182.5898384,10.40062498,-99999.0,'11111222,11111222,99999999' 
TABS,ioos:station:wmo:42048:1,2012-12-03T12:00:00Z,27.9396,-96.8429,2.0,176.216606,8.638825152,-99999.0,'11133222,11111222,99999999' 
TABS,ioos:station:wmo:42048:1,2012-12-03T12:30:00Z,27.9396,-96.8429,2.0,193.4141353,8.491672391,-99999.0,'11133222,11111222,99999999' 
TABS,ioos:station:wmo:42048:1,2012-12-03T13:00:00Z,27.9396,-96.8429,2.0,204.2919626,10.93850538,-99999.0,'11111222,11111222,99999999' 
TABS,ioos:station:wmo:42048:1,2012-12-03T13:30:00Z,27.9396,-96.8429,2.0,225.9550723,12.29829663,-99999.0,'11111222,11111222,99999999' 
TABS,ioos:station:wmo:42048:1,2012-12-03T14:00:00Z,27.9396,-96.8429,2.0,228.9520117,11.69507589,-99999.0,'11111222,11111222,99999999' 
TABS,ioos:station:wmo:42048:1,2012-12-03T14:30:00Z,27.9396,-96.8429,2.0,226.6659968,11.67219774,-99999.0,'11111222,11111222,99999999' 
TABS,ioos:station:wmo:42048:1,2012-12-03T15:00:00Z,27.9396,-96.8429,2.0,215.8871827,12.94790331,-99999.0,'11111222,11111222,99999999' 
TABS,ioos:station:wmo:42048:1,2012-12-03T15:30:00Z,27.9396,-96.8429,2.0,211.5206757,16.04788148,-99999.0,'11111222,11111222,99999999' 
TABS,ioos:station:wmo:42048:1,2012-12-03T16:00:00Z,27.9396,-96.8429,2.0,210.3480514,16.60545091,-99999.0,'11111222,11111222,99999999' 
TABS,ioos:station:wmo:42048:1,2012-12-03T16:30:00Z,27.9396,-96.8429,2.0,207.1494078,18.40826988,-99999.0,'11111222,11111222,99999999' 
TABS,ioos:station:wmo:42048:1,2012-12-03T17:00:00Z,27.9396,-96.8429,2.0,200.8741655,20.43101809,-99999.0,'11111222,11111222,99999999' 
TABS,ioos:station:wmo:42048:1,2012-12-03T17:30:00Z,27.9396,-96.8429,2.0,204.9351673,19.97169247,-99999.0,'11111222,11111222,99999999' 
TABS,ioos:station:wmo:42048:1,2012-12-03T18:00:00Z,27.9396,-96.8429,2.0,210.787074,22.83857482,-99999.0,'11111222,11111222,99999999' 
TABS,ioos:station:wmo:42048:1,2012-12-03T18:30:00Z,27.9396,-96.8429,2.0,204.4835219,21.42672163,-99999.0,'11111222,11111222,99999999' 
TABS,ioos:station:wmo:42048:1,2012-12-03T19:00:00Z,27.9396,-96.8429,2.0,203.6985132,19.85428921,-99999.0,'11111222,11111222,99999999' 
TABS,ioos:station:wmo:42048:1,2012-12-03T19:30:00Z,27.9396,-96.8429,2.0,213.3969893,26.05183487,-99999.0,'11111222,11111222,99999999' 
TABS,ioos:station:wmo:42048:1,2012-12-03T20:00:00Z,27.9396,-96.8429,2.0,208.3210681,22.61727216,-99999.0,'11111222,11111222,99999999' 
TABS,ioos:station:wmo:42048:1,2012-12-03T20:30:00Z,27.9396,-96.8429,2.0,201.4893381,24.56785705,-99999.0,'11111222,11111222,99999999' 
TABS,ioos:station:wmo:42048:1,2012-12-03T21:00:00Z,27.9396,-96.8429,2.0,202.900178,23.71951517,-99999.0,'11111222,11111222,99999999' 
TABS,ioos:station:wmo:42048:1,2012-12-03T21:30:00Z,27.9396,-96.8429,2.0,198.5844036,25.41531231,-99999.0,'11111222,11111222,99999999' 
TABS,ioos:station:wmo:42048:1,2012-12-03T22:00:00Z,27.9396,-96.8429,2.0,197.8470344,27.4405266,-99999.0,'11111222,11111222,99999999' 
TABS,ioos:station:wmo:42048:1,2012-12-03T22:30:00Z,27.9396,-96.8429,2.0,202.3411582,28.17494809,-99999.0,'11111222,11111222,99999999' 
TABS,ioos:station:wmo:42048:1,2012-12-03T23:00:00Z,27.9396,-96.8429,2.0,199.9974627,30.14771965,-99999.0,'11111222,11111222,99999999' 
TABS,ioos:station:wmo:42048:1,2012-12-03T23:30:00Z,27.9396,-96.8429,2.0,202.9429885,30.93741586,-99999.0,'11111222,11111222,99999999' 
TABS,ioos:station:wmo:42048:1,2012-12-04T00:00:00Z,27.9396,-96.8429,2.0,205.7187877,31.50068729,-99999.0,'11111222,11111222,99999999' 
TABS,ioos:station:wmo:42048:1,2012-12-04T00:30:00Z,27.9396,-96.8429,2.0,207.0988104,40.30463993,-99999.0,'11111222,11111222,99999999' 
TABS,ioos:station:wmo:42048:1,2012-12-04T01:00:00Z,27.9396,-96.8429,2.0,208.8012407,35.18225973,-99999.0,'11111222,11111222,99999999' 
TABS,ioos:station:wmo:42048:1,2012-12-04T01:30:00Z,27.9396,-96.8429,2.0,214.4519709,33.56787899,-99999.0,'11111222,11111222,99999999' 
TABS,ioos:station:wmo:42048:1,2012-12-04T02:00:00Z,27.9396,-96.8429,2.0,232.296903,33.84757598,-99999.0,'11111222,11111222,99999999' 
TABS,ioos:station:wmo:42048:1,2012-12-04T02:30:00Z,27.9396,-96.8429,2.0,231.9392417,32.2469611,-99999.0,'11111222,11111222,99999999' 
TABS,ioos:station:wmo:42048:1,2012-12-04T03:00:00Z,27.9396,-96.8429,2.0,234.4023387,33.50026269,-99999.0,'11111222,11111222,99999999' 
TABS,ioos:station:wmo:42048:1,2012-12-04T03:30:00Z,27.9396,-96.8429,2.0,231.9603479,33.0248785,-99999.0,'11111222,11111222,99999999' 
TABS,ioos:station:wmo:42048:1,2012-12-04T04:00:00Z,27.9396,-96.8429,2.0,229.9043714,32.91614194,-99999.0,'11111222,11111222,99999999' 
TABS,ioos:station:wmo:42048:1,2012-12-04T04:30:00Z,27.9396,-96.8429,2.0,232.4344395,31.14829369,-99999.0,'11111222,11111222,99999999' 
TABS,ioos:station:wmo:42048:1,2012-12-04T05:00:00Z,27.9396,-96.8429,2.0,234.4001252,33.37820397,-99999.0,'11111222,11111222,99999999' 
TABS,ioos:station:wmo:42048:1,2012-12-04T05:30:00Z,27.9396,-96.8429,2.0,233.8095926,32.36427815,-99999.0,'11111222,11111222,99999999' 
TABS,ioos:station:wmo:42048:1,2012-12-04T06:00:00Z,27.9396,-96.8429,2.0,237.6029694,32.43881163,-99999.0,'11111222,11111222,99999999' 
TABS,ioos:station:wmo:42048:1,2012-12-04T06:30:00Z,27.9396,-96.8429,2.0,237.4502821,32.60064417,-99999.0,'11111222,11111222,99999999' 
TABS,ioos:station:wmo:42048:1,2012-12-04T07:00:00Z,27.9396,-96.8429,2.0,239.538722,31.46262704,-99999.0,'11111222,11111222,99999999' 
TABS,ioos:station:wmo:42048:1,2012-12-04T07:30:00Z,27.9396,-96.8429,2.0,235.0986008,30.44597346,-99999.0,'11111222,11111222,99999999' 
TABS,ioos:station:wmo:42048:1,2012-12-04T08:00:00Z,27.9396,-96.8429,2.0,232.7811246,30.23855982,-99999.0,'11111222,11111222,99999999' 
TABS,ioos:station:wmo:42048:1,2012-12-04T08:30:00Z,27.9396,-96.8429,2.0,233.6887915,28.0833367,-99999.0,'11111222,11111222,99999999' 
TABS,ioos:station:wmo:42048:1,2012-12-04T09:00:00Z,27.9396,-96.8429,2.0,226.9541186,28.61204292,-99999.0,'11111222,11111222,99999999' 
TABS,ioos:station:wmo:42048:1,2012-12-04T09:30:00Z,27.9396,-96.8429,2.0,229.5004701,27.39293705,-99999.0,'11111222,11111222,99999999' 
TABS,ioos:station:wmo:42048:1,2012-12-04T10:00:00Z,27.9396,-96.8429,2.0,225.1734825,27.97327296,-99999.0,'11111222,11111222,99999999' 
TABS,ioos:station:wmo:42048:1,2012-12-04T10:30:00Z,27.9396,-96.8429,2.0,226.9381815,27.59295562,-99999.0,'11111222,11111222,99999999' 
TABS,ioos:station:wmo:42048:1,2012-12-04T11:00:00Z,27.9396,-96.8429,2.0,225.0620639,25.97911854,-99999.0,'11111222,11111222,99999999' 
TABS,ioos:station:wmo:42048:1,2012-12-04T11:30:00Z,27.9396,-96.8429,2.0,223.5001408,27.02073278,-99999.0,'11111222,11111222,99999999' 
TABS,ioos:station:wmo:42048:1,2012-12-04T12:00:00Z,27.9396,-96.8429,2.0,223.0324699,25.33642635,-99999.0,'11111222,11111222,99999999' 
TABS,ioos:station:wmo:42048:1,2012-12-04T12:30:00Z,27.9396,-96.8429,2.0,222.2061486,23.50387628,-99999.0,'11111222,11111222,99999999' 
TABS,ioos:station:wmo:42048:1,2012-12-04T13:00:00Z,27.9396,-96.8429,2.0,212.0971555,23.75034316,-99999.0,'11111222,11111222,99999999' 
TABS,ioos:station:wmo:42048:1,2012-12-04T13:30:00Z,27.9396,-96.8429,2.0,211.3765799,24.73759891,-99999.0,'11111222,11111222,99999999' 
TABS,ioos:station:wmo:42048:1,2012-12-04T14:00:00Z,27.9396,-96.8429,2.0,207.5799878,25.74565594,-99999.0,'11111222,11111222,99999999' 
TABS,ioos:station:wmo:42048:1,2012-12-04T14:30:00Z,27.9396,-96.8429,2.0,203.0881148,26.62242851,-99999.0,'11111222,11111222,99999999' 
TABS,ioos:station:wmo:42048:1,2012-12-04T15:00:00Z,27.9396,-96.8429,2.0,200.7274492,26.95469718,-99999.0,'11111222,11111222,99999999' 
TABS,ioos:station:wmo:42048:1,2012-12-04T15:30:00Z,27.9396,-96.8429,2.0,199.771717,28.05387852,-99999.0,'11111222,11111222,99999999' 